GFSSW_925_rhum_123.txt.gz
RH
63 64 74 80 74 67 64 62 50 39 36 64 70 27 27 22 16 31 33 30 33 32 23 21 20 17 15 19 26 32 56 53 49 44 34 26 27 23 18 18 17 11 20 34 55
57 60 71 82 76 68 57 49 40 32 30 31 24 18 20 20 31 32 29 25 23 24 22 26 30 34 21 17 25 31 53 41 42 36 36 32 31 28 22 22 21 20 24 44 73
60 64 74 74 68 58 46 30 31 32 29 24 20 19 24 26 50 34 24 23 22 21 20 24 25 43 27 19 19 25 29 25 32 35 34 36 33 27 28 29 24 23 19 50 70
58 63 64 65 50 40 29 30 30 28 25 23 26 41 29 50 9 28 23 23 23 23 22 22 25 27 41 35 26 24 17 18 22 25 26 28 30 29 28 26 22 19 19 47 64
60 60 58 50 42 34 29 28 28 25 23 24 34 71 49 39 22 21 25 17 18 18 23 26 25 28 28 30 30 27 27 28 24 22 17 16 20 24 24 20 22 20 19 35 56
52 52 50 47 41 31 30 28 26 20 27 39 52 78 72 17 17 25 25 19 24 24 21 25 26 26 33 33 30 28 28 26 22 20 16 21 21 21 18 17 21 20 20 20 42
59 50 44 42 37 32 27 22 20 30 46 49 73 88 80 30 28 28 25 20 21 26 23 24 24 27 30 36 29 29 34 28 23 19 20 17 24 23 16 16 19 23 21 19 26
59 48 46 42 38 33 20 24 44 48 52 53 67 83 67 26 31 24 23 21 19 26 25 27 26 28 30 30 36 38 36 34 17 19 18 24 24 17 20 18 18 18 20 21 18
61 50 46 42 32 22 35 45 47 44 48 60 74 74 49 29 30 21 22 26 23 24 25 29 29 34 32 45 54 48 50 38 29 19 20 20 21 16 18 20 20 18 18 21 20
54 48 53 50 30 36 48 40 54 60 82 80 69 65 41 25 25 22 21 23 28 32 38 39 42 43 50 51 53 35 43 34 37 25 25 29 28 22 18 21 22 19 18 20 22
53 52 45 38 28 49 44 35 34 37 51 36 38 45 35 27 25 25 24 28 30 40 59 46 58 66 57 46 38 40 46 50 45 36 39 37 31 26 22 21 18 22 21 23 20
65 58 46 28 37 52 50 50 43 42 48 52 52 49 42 37 43 32 28 39 42 56 45 53 70 46 46 48 51 52 55 54 42 34 41 46 44 29 23 24 18 20 20 24 23
70 54 38 29 42 51 50 50 50 52 63 45 45 44 36 40 40 31 34 38 49 57 51 59 48 43 45 50 58 58 65 61 58 48 39 49 54 35 24 24 21 17 20 18 24
60 46 40 38 59 54 55 52 56 55 71 51 47 36 26 30 30 22 31 38 42 52 51 65 50 50 50 54 48 71 48 54 91 91 85 44 65 45 38 39 34 21 21 24 24
61 51 48 59 65 62 57 60 57 59 40 38 26 14 22 26 25 25 29 39 52 54 60 69 60 67 78 68 51 72 58 84 74 71 62 64 70 55 44 49 39 31 24 24 24
63 56 57 60 66 63 55 62 62 76 51 27 20 25 33 29 31 30 39 43 40 55 58 60 45 48 53 46 54 61 71 77 68 73 94 64 64 70 53 42 36 32 30 62 65
56 57 52 73 70 59 60 67 78 64 23 28 25 33 40 38 39 43 60 67 64 84 68 62 65 50 47 74 60 71 70 92 92 97 84 45 57 51 41 47 47 49 64 62 60
53 49 46 54 64 65 64 82 66 40 29 26 30 37 42 41 40 54 60 70 52 59 80 91 85 57 49 69 71 82 64 74 87 90 75 55 65 65 57 34 52 57 64 68 76
54 54 53 51 65 69 76 84 53 33 29 34 37 45 48 42 50 58 83 70 58 54 83 81 78 45 48 48 69 68 90 49 56 85 94 76 60 75 75 74 78 79 79 80 76
65 79 70 62 63 72 81 55 35 29 28 32 46 43 53 51 56 75 64 56 54 45 54 75 88 53 52 64 68 77 55 66 76 96 83 86 92 91 92 86 84 86 85 82 77
81 84 69 60 69 81 85 68 34 26 28 34 39 42 46 58 56 81 72 59 49 49 50 70 88 67 58 96 95 85 92 84 78 93 96 96 94 80 92 94 95 89 85 84 82
87 93 66 59 91 95 89 65 30 31 28 34 34 42 53 56 56 54 60 56 55 55 66 56 85 90 64 59 57 67 93 89 99 88 94 97 99 97 93 89 89 89 82 81 80
88 82 65 62 95 91 69 40 37 35 32 34 36 51 46 48 55 54 56 48 54 56 58 61 80 97 67 58 54 82 72 85 92 97 94 97 98 97 97 96 96 96 95 94 84
91 92 80 77 78 54 47 46 43 37 36 33 44 43 44 46 47 55 53 57 51 54 52 60 80 87 95 82 93 98 83 76 86 95 79 97 99 100 100 100 100 100 98 94 89
89 87 70 91 77 52 45 42 45 45 32 34 47 43 44 50 56 60 60 60 52 48 58 66 88 76 70 65 94 100 96 93 90 90 92 100 99 100 100 100 100 100 94 98 96
91 88 74 69 47 43 46 45 44 35 33 38 43 43 42 50 51 58 64 60 66 57 60 67 85 80 77 63 88 80 81 82 79 93 95 95 98 100 95 83 88 89 99 92 90
74 69 68 76 63 65 64 46 44 40 38 38 41 47 52 52 49 56 56 56 57 61 67 76 86 88 79 63 98 84 98 97 94 94 98 100 100 100 95 92 94 91 89 92 91

GFSSW_925_rhum_129.txt.gz
RH
82 73 63 62 64 57 60 44 30 24 20 10 7 8 7 13 26 27 36 36 27 20 18 16 18 30 15 17 26 41 32 41 33 33 26 25 28 23 23 26 22 19 18 18 41
74 66 58 67 65 56 55 34 25 27 18 10 12 19 16 15 30 28 29 25 23 20 18 22 24 35 26 16 21 22 34 29 29 32 33 28 27 25 27 25 26 26 22 21 57
73 65 59 63 61 61 47 29 26 26 20 12 17 22 25 31 37 26 24 21 21 19 20 23 23 40 38 24 18 25 21 25 22 26 21 21 20 17 20 21 23 26 23 21 20
75 66 58 63 65 60 44 33 30 28 17 17 22 24 20 33 9 27 23 21 24 20 21 23 22 22 26 30 28 29 27 23 25 23 22 20 17 18 17 17 15 15 16 17 18
73 58 55 59 63 56 45 30 29 24 17 32 29 27 24 13 16 22 23 22 25 24 25 25 27 28 27 29 28 27 25 26 24 24 22 19 18 16 13 12 12 11 14 16 16
72 56 50 53 48 49 43 33 26 17 31 37 35 34 28 10 19 25 22 20 20 25 26 26 28 26 29 31 30 28 28 26 24 23 20 22 18 16 11 11 11 12 12 13 15
71 53 56 50 43 46 40 31 20 35 41 40 36 43 38 18 24 25 22 22 23 24 26 27 27 30 31 35 29 30 32 27 21 20 19 16 14 14 12 15 16 16 16 15 14
71 55 59 50 42 40 37 26 45 40 40 44 39 51 23 25 26 23 22 22 23 24 27 27 28 30 33 30 32 33 33 26 17 18 16 16 16 13 15 17 17 16 18 16 15
75 65 56 48 37 38 34 52 48 42 44 49 48 56 26 28 27 25 24 25 24 27 28 30 31 36 35 41 38 38 24 32 26 20 20 20 19 16 15 19 25 25 22 20 18
81 63 56 45 39 37 50 69 67 54 64 61 62 37 25 25 26 23 23 27 28 31 35 36 40 44 44 40 25 27 32 31 33 25 25 29 31 26 25 26 29 28 26 24 21
83 63 50 44 39 46 73 77 41 50 84 35 39 35 30 28 26 25 25 29 33 38 45 47 49 43 37 42 37 41 43 40 33 29 37 40 38 33 31 32 32 30 28 26 25
84 66 43 44 35 50 58 43 31 28 24 46 46 44 40 36 26 24 28 34 42 49 48 48 54 44 45 45 48 47 51 48 40 35 42 43 43 36 35 35 32 33 32 31 28
80 66 54 38 42 60 52 44 45 45 32 41 44 39 35 35 30 26 32 40 47 55 54 55 44 42 46 46 52 50 56 52 53 45 47 50 43 25 22 24 22 23 28 29 28
70 66 50 27 58 55 54 50 50 51 55 44 42 34 38 35 28 25 33 39 46 52 53 60 49 48 48 50 47 63 43 46 51 70 75 52 77 34 20 24 24 23 25 26 24
75 51 36 40 58 57 52 51 54 51 24 43 38 28 33 27 25 26 33 40 53 52 56 54 58 63 74 60 50 57 48 52 56 71 83 50 71 30 25 30 30 30 35 60 54
66 51 39 64 62 56 55 55 59 63 25 34 24 30 33 32 32 32 40 39 43 55 58 56 46 49 53 49 52 45 59 63 68 86 85 54 52 37 44 96 92 75 83 84 66
71 56 52 64 76 58 62 66 69 39 27 26 35 37 37 40 38 45 49 47 49 47 48 50 52 53 48 59 53 64 70 69 59 70 44 37 47 39 94 95 97 94 95 92 85
71 73 68 75 65 57 66 78 46 42 32 28 37 40 45 42 46 46 56 51 51 56 62 56 32 52 54 58 56 57 84 78 87 60 55 43 56 70 70 95 97 95 99 89 88
77 85 83 76 68 66 72 75 40 37 29 36 40 45 46 45 56 53 69 56 53 48 47 60 52 44 36 50 58 97 94 66 91 63 77 54 66 73 61 86 98 98 96 98 90
70 66 64 71 72 64 83 57 35 31 33 34 42 43 51 49 50 64 58 56 53 47 46 51 72 44 48 56 63 72 68 89 85 90 78 57 86 88 93 95 96 99 98 99 95
69 88 82 65 69 75 87 56 35 30 32 38 42 48 49 56 56 68 63 56 52 50 52 53 64 53 51 67 57 69 64 75 87 88 91 86 93 100 98 98 98 98 99 97 97
90 98 84 78 93 90 81 54 31 34 35 39 44 50 55 53 52 52 58 53 53 52 52 53 66 73 51 44 48 53 65 79 93 80 78 86 96 100 100 100 100 98 99 100 100
93 96 85 76 95 88 70 52 37 37 37 37 56 47 46 49 52 50 52 50 55 52 53 58 75 86 42 55 50 72 67 90 96 100 97 94 94 100 99 98 97 98 99 99 99
88 98 84 76 82 77 77 54 52 38 41 46 47 43 44 44 46 51 45 48 53 52 51 62 72 77 76 69 89 85 71 82 84 94 94 95 94 93 96 97 96 97 98 98 98
86 85 72 96 91 61 54 51 50 44 39 41 44 42 43 49 49 53 58 55 53 53 56 55 72 72 66 62 89 97 81 87 92 89 81 93 91 97 98 97 97 96 96 96 94
96 88 72 70 68 56 50 49 47 39 41 46 49 49 46 47 43 54 51 58 54 54 56 64 73 73 68 70 92 95 86 71 90 86 90 96 90 100 95 80 81 88 93 94 93
82 66 63 68 58 57 56 49 45 51 60 45 48 52 53 51 50 47 48 53 52 55 67 70 76 78 71 63 97 93 95 96 91 89 92 89 98 99 85 84 89 83 86 88 89

GFSSW_925_rhum_132.txt.gz
RH
76 76 68 53 53 55 52 44 29 23 23 8 7 10 7 22 23 28 20 29 33 18 19 15 13 16 10 10 14 18 16 15 14 18 16 15 20 15 14 19 17 18 17 16 16
75 71 66 56 51 52 55 38 23 25 19 8 10 17 16 15 33 18 26 23 22 18 14 12 10 13 8 8 11 13 10 8 10 14 17 18 16 13 12 10 11 11 12 17 18
77 73 66 53 50 52 50 35 25 25 18 9 18 21 25 25 22 18 23 20 18 18 18 16 14 14 12 12 9 9 10 7 12 16 16 14 12 9 9 10 8 10 13 13 11
82 68 65 54 49 56 43 25 26 24 14 14 20 23 20 45 9 22 20 21 23 21 17 14 12 11 10 11 17 16 12 12 10 14 14 12 10 9 8 7 6 7 9 10 9
86 74 66 52 48 54 41 26 26 19 13 25 24 28 38 12 16 22 20 23 25 21 18 16 15 15 11 13 15 15 11 13 13 13 12 11 10 9 8 7 8 8 8 8 9
86 76 65 51 51 44 37 27 21 10 21 31 28 28 32 9 19 23 22 24 22 20 20 19 20 19 17 17 18 18 17 15 13 13 12 13 10 10 8 7 8 9 9 9 10
86 76 65 48 51 39 33 30 16 18 34 37 33 56 27 12 23 31 25 25 26 22 21 23 23 21 22 20 22 21 21 13 12 12 9 10 10 8 7 8 9 8 8 8 9
88 80 63 47 50 38 31 24 22 32 37 40 37 53 18 26 30 27 27 23 24 25 24 25 25 24 26 24 21 21 17 14 12 11 10 13 11 7 9 10 10 9 11 14 14
89 86 64 48 48 37 30 35 38 41 42 43 50 44 19 25 22 24 26 19 22 25 28 26 26 27 27 24 16 20 12 12 13 13 14 15 17 12 12 13 15 15 15 15 15
96 90 72 51 46 34 34 74 52 56 66 65 52 35 22 16 22 22 23 25 23 25 28 27 27 26 24 20 12 16 17 14 15 13 16 20 22 18 16 15 15 15 16 16 16
99 93 68 57 45 32 66 79 42 46 50 23 22 22 19 22 25 20 23 24 25 26 28 33 26 20 20 24 24 26 25 21 17 18 30 30 27 23 18 16 16 16 16 16 16
100 91 71 61 45 54 83 37 25 27 32 40 29 26 29 28 19 19 25 24 29 28 34 33 27 27 29 31 32 29 29 26 21 24 30 30 32 23 16 13 14 17 20 18 16
100 90 72 61 59 74 69 37 36 32 17 26 24 19 22 24 18 21 22 27 30 37 35 35 28 35 36 30 34 30 31 30 32 31 30 35 24 12 15 14 30 40 41 39 36
100 88 82 63 82 68 55 48 35 36 27 26 27 24 28 22 22 20 24 26 34 36 35 40 35 37 35 37 34 38 28 34 38 45 46 35 52 24 19 40 56 48 59 66 63
97 87 65 48 59 55 45 52 39 41 31 24 29 27 23 20 21 26 28 30 32 32 42 39 39 45 60 43 38 37 37 42 44 47 57 35 43 20 46 81 70 61 69 84 81
92 75 52 62 71 55 47 51 44 49 30 29 25 27 25 23 23 24 27 28 31 34 38 33 28 36 36 36 37 36 44 40 43 52 66 33 33 34 75 96 86 84 70 82 94
86 59 65 76 83 61 52 46 44 30 22 26 25 26 23 28 30 30 30 32 30 30 27 24 33 37 40 42 36 46 47 41 44 48 34 25 32 78 58 71 94 95 94 93 95
73 71 78 73 65 66 57 56 34 19 25 18 25 26 29 30 32 33 37 36 36 31 28 24 39 37 38 40 55 52 54 54 69 44 46 32 35 74 47 48 68 79 88 87 95
86 83 73 74 72 67 54 54 28 23 22 27 27 32 33 34 42 37 46 35 39 31 32 31 30 25 26 39 48 86 64 56 76 50 62 32 44 55 46 51 69 95 82 98 95
86 83 84 80 74 60 68 37 26 21 21 24 27 23 34 32 37 88 40 39 43 35 34 39 45 30 30 43 47 50 44 58 71 80 65 35 76 79 80 78 75 97 97 99 95
82 96 91 85 79 77 82 30 26 22 23 24 31 29 27 34 32 51 48 46 38 35 36 41 48 35 34 45 44 41 51 55 56 59 65 62 89 100 99 98 95 96 99 99 98
90 95 95 92 85 66 48 30 24 26 24 29 27 31 32 35 39 35 46 37 38 34 40 46 51 52 35 31 37 44 54 61 79 67 60 71 96 95 100 100 99 95 100 100 100
96 97 96 95 83 55 50 34 25 27 25 30 39 34 33 36 42 36 41 41 40 38 45 48 54 60 47 51 42 53 50 58 67 81 96 92 92 94 98 97 94 100 98 98 98
72 99 96 90 75 50 48 36 44 36 42 40 37 33 35 38 35 42 40 41 43 40 48 53 50 66 59 71 72 71 56 60 62 87 90 88 91 91 96 96 98 96 96 99 98
72 76 59 95 86 70 39 37 42 42 38 37 36 31 32 39 37 37 34 42 44 54 46 46 53 51 48 44 71 91 62 71 87 79 78 90 87 97 97 96 100 100 98 98 97
96 71 64 59 60 52 40 34 34 40 37 39 34 31 31 35 28 40 36 41 43 44 45 50 57 53 54 53 77 85 60 52 65 84 72 90 80 98 86 71 66 69 93 92 93
72 61 45 57 55 41 37 36 35 40 40 28 32 37 37 35 35 34 34 37 41 44 54 59 60 58 48 46 99 92 96 83 85 81 83 76 90 90 72 68 70 68 67 75 79

GFSSW_925_rhum_138.txt.gz
RH
76 73 72 66 62 48 42 39 38 20 11 6 6 5 5 5 9 30 19 24 17 13 11 20 10 7 7 6 5 7 11 12 11 10 7 7 10 9 8 7 6 7 7 10 9
75 73 74 67 63 52 40 37 34 22 15 7 9 14 11 8 23 14 21 14 13 11 20 9 8 6 7 6 5 7 10 10 6 5 6 7 9 8 6 5 5 5 5 5 5
81 75 71 69 62 54 43 35 28 20 15 7 11 14 17 21 28 19 17 14 10 12 18 10 9 7 7 5 5 6 8 7 6 5 6 6 7 6 6 6 5 6 6 6 5
89 80 75 70 63 56 45 39 30 22 10 7 17 18 15 37 16 23 14 9 12 16 16 9 8 9 8 7 5 7 8 8 6 5 6 7 6 6 6 6 5 5 6 6 7
89 89 81 78 66 56 44 40 28 24 11 7 19 23 39 22 11 20 9 16 17 13 11 10 10 9 10 7 7 8 7 6 6 7 6 6 7 7 7 6 6 5 5 7 7
96 94 94 83 71 62 48 43 29 23 10 12 22 20 52 23 12 16 16 15 14 12 11 11 12 12 12 10 10 8 9 10 9 8 7 8 7 6 6 5 6 6 6 6 6
100 98 98 96 82 65 49 42 32 26 12 15 23 50 34 19 11 15 16 14 15 13 12 13 14 15 13 14 11 14 15 10 9 8 7 7 8 7 5 5 7 7 7 8 8
100 100 100 99 87 72 51 42 28 16 16 22 29 54 33 15 14 15 15 15 15 14 14 14 15 16 16 13 14 13 12 16 9 7 7 8 12 7 7 7 8 8 9 10 12
99 100 100 100 98 82 57 39 25 18 34 32 47 44 21 18 16 14 14 13 13 14 17 17 15 18 15 20 18 14 16 12 10 6 8 10 11 9 9 10 10 14 26 27 28
100 100 100 100 98 90 71 35 70 40 49 54 35 27 20 17 12 14 15 15 13 15 17 21 21 22 19 19 23 18 14 12 10 7 7 10 12 11 10 12 27 28 29 29 30
84 100 100 100 100 94 70 53 60 54 45 25 19 15 12 12 14 13 13 14 14 16 22 18 23 19 15 17 17 16 13 12 10 8 13 15 14 11 21 28 32 32 35 35 35
69 94 100 100 100 91 57 80 42 42 46 27 22 16 10 13 15 11 13 16 18 23 18 20 22 18 18 16 16 16 17 16 12 11 13 14 14 19 31 33 33 38 42 43 43
79 90 100 100 100 74 60 67 55 44 62 46 20 16 14 13 13 12 13 14 17 19 18 19 17 20 21 17 16 16 18 17 17 15 14 15 16 34 30 28 33 37 42 47 50
93 93 100 100 94 77 64 68 50 54 94 55 38 19 11 14 15 8 12 14 16 19 15 19 18 21 18 18 16 22 14 19 20 22 28 18 30 18 30 34 39 42 47 53 54
76 94 100 90 74 68 62 65 39 56 95 41 22 13 12 16 12 12 12 15 21 19 23 25 25 26 28 24 21 23 19 23 24 27 32 28 26 30 34 46 49 48 50 56 56
84 92 100 97 70 62 64 47 45 90 90 45 22 19 21 17 16 14 17 16 17 18 20 19 15 18 19 20 21 21 27 28 28 32 47 29 25 53 49 54 56 54 57 61 60
98 97 100 94 70 63 51 58 95 93 39 43 23 22 21 22 17 21 26 25 24 26 26 19 17 16 20 26 21 28 32 38 34 50 51 24 29 53 46 49 58 63 65 67 64
99 100 100 87 66 59 54 92 97 53 45 26 25 25 29 21 18 19 24 25 20 20 21 21 29 22 23 29 29 34 33 40 53 39 38 23 45 66 44 45 54 58 65 68 71
99 100 99 83 65 57 79 99 85 58 37 35 24 30 28 20 26 22 27 23 20 19 21 18 20 20 24 17 27 39 45 36 42 37 48 32 62 51 49 54 59 70 72 86 78
98 96 96 83 70 66 94 85 65 45 39 31 29 26 31 24 28 64 28 20 21 17 20 21 26 19 15 18 22 30 25 38 48 60 46 36 71 75 76 72 72 90 92 86 83
91 96 100 90 70 88 95 74 58 36 31 38 36 28 25 26 29 42 34 24 22 22 18 22 28 24 20 24 24 38 40 43 36 41 48 55 79 83 75 75 78 75 96 91 94
89 98 99 86 96 97 89 56 50 39 26 22 22 30 28 28 30 36 29 27 21 20 25 28 29 35 26 22 21 24 33 33 55 46 58 71 95 67 65 68 68 73 81 89 88
99 97 100 74 93 92 62 61 47 43 32 26 33 30 30 31 32 28 23 23 23 22 30 34 42 50 30 27 24 31 38 33 38 44 63 86 93 76 75 73 68 84 84 84 77
97 98 99 98 96 61 74 70 64 34 24 30 26 22 24 26 22 28 33 31 26 24 51 38 41 48 60 63 48 57 44 39 44 62 76 90 96 94 100 99 98 90 88 84 76
92 79 75 96 99 73 62 71 42 34 22 23 26 24 26 30 26 25 38 38 28 49 36 46 48 37 30 25 40 45 40 49 55 56 70 90 82 86 94 90 100 95 86 79 78
100 77 62 64 70 72 74 52 33 27 28 30 32 26 26 32 26 32 38 36 33 39 39 42 54 34 36 28 63 56 43 39 48 54 62 85 87 64 59 50 50 51 66 70 71
91 47 52 63 69 81 77 57 45 40 36 28 25 28 32 25 23 21 25 25 28 41 48 46 53 41 50 44 72 80 77 63 61 61 67 72 73 64 59 53 53 53 51 54 58

GFSSW_925_rhum_141.txt.gz
RH
80 73 67 66 60 53 39 28 18 15 10 6 6 5 10 8 4 12 27 21 11 8 9 15 14 11 8 11 8 6 16 20 17 13 9 8 11 9 7 6 6 7 7 7 5
84 80 73 69 67 60 49 31 21 12 8 6 5 5 12 17 22 30 22 14 10 9 12 16 12 9 11 9 9 10 17 14 11 8 9 8 8 9 8 8 7 9 8 5 5
83 85 78 74 71 63 56 42 27 12 8 7 6 7 8 13 56 24 17 12 6 9 16 20 11 10 10 9 9 9 12 9 8 10 8 9 9 8 8 9 9 8 8 9 8
90 87 88 78 74 65 56 46 38 18 5 8 9 14 8 27 28 21 13 5 6 14 17 16 11 11 12 12 9 9 8 9 10 8 8 8 8 9 8 9 8 7 8 7 8
97 92 91 88 81 72 61 50 38 32 9 6 12 20 22 48 28 19 10 9 14 13 14 12 14 14 16 15 11 10 9 10 11 11 9 7 8 9 9 9 9 8 8 7 9
99 99 94 94 96 86 68 59 39 28 20 8 13 22 58 44 14 14 16 14 14 13 12 13 16 15 16 16 17 13 15 14 14 13 11 10 9 8 8 8 7 6 7 10 34
100 100 98 96 98 95 91 65 45 30 11 11 21 41 52 36 11 15 16 16 15 14 14 14 15 18 20 20 16 16 20 19 14 12 12 9 9 10 9 7 8 17 31 31 32
99 100 100 100 99 99 87 70 46 30 13 15 33 51 56 17 16 14 16 16 15 14 14 14 16 19 20 18 22 17 16 19 13 11 9 9 14 11 11 11 30 32 32 33 33
96 100 100 100 100 100 95 85 48 31 36 31 58 60 38 19 15 14 14 15 15 14 15 16 16 21 22 28 32 25 25 21 15 9 10 11 13 13 14 30 36 38 40 41 42
68 93 99 99 100 100 98 90 75 34 45 64 58 43 33 21 14 15 14 15 14 15 19 22 26 31 30 31 35 25 21 17 14 10 11 16 16 18 35 38 44 46 47 49 49
64 70 95 98 100 100 98 73 71 84 68 44 34 24 14 19 12 14 14 15 15 18 26 25 37 39 28 22 19 18 18 17 16 12 15 16 17 40 40 43 49 51 54 55 54
62 68 89 99 100 100 91 88 57 59 71 35 35 32 22 13 18 15 12 20 22 29 25 28 35 26 20 18 18 19 22 24 19 15 17 18 22 43 41 45 48 53 58 58 58
66 79 89 100 99 99 69 76 52 44 73 54 35 29 25 15 18 17 14 18 21 28 29 32 27 22 23 24 21 18 23 24 22 20 19 20 35 43 42 43 45 50 56 58 62
80 76 98 99 99 90 65 64 51 49 94 61 50 30 20 16 21 13 13 16 20 23 22 26 18 20 23 23 19 25 19 22 24 29 39 26 49 44 47 54 54 58 66 67 65
85 79 99 85 82 78 69 65 49 61 97 40 42 24 21 20 17 16 13 17 23 24 23 38 26 28 32 26 20 29 25 28 30 36 38 37 51 55 56 67 67 66 70 70 68
91 89 99 96 81 74 66 57 55 97 92 47 31 25 23 20 19 14 18 16 18 24 21 27 20 23 26 21 23 22 29 34 36 43 78 44 46 74 74 76 73 70 76 73 73
94 91 100 94 86 68 62 57 97 98 38 42 34 28 24 26 24 20 24 28 34 40 38 26 26 19 17 28 26 28 39 70 67 78 72 31 57 73 68 69 74 78 82 80 78
87 90 98 98 81 64 55 94 99 59 52 32 27 29 31 27 27 24 25 33 26 26 26 34 48 22 26 36 33 36 40 63 65 78 69 40 78 77 59 61 69 67 76 73 83
99 100 100 100 81 58 79 97 68 57 44 42 28 35 32 27 35 28 36 34 28 24 39 32 34 21 25 22 25 42 55 40 50 50 79 73 72 63 59 63 63 71 75 79 81
100 99 96 100 74 65 94 81 59 49 39 40 49 35 45 32 34 48 41 27 27 22 28 32 43 29 23 17 21 32 30 50 63 87 72 76 85 91 81 74 68 84 85 79 77
99 98 90 100 78 94 95 85 55 46 46 52 52 43 34 34 30 58 44 31 24 23 22 26 34 33 28 32 30 37 48 48 51 62 79 90 97 88 79 74 76 72 86 82 84
95 99 100 90 97 93 95 62 52 49 44 45 61 56 45 34 32 42 40 35 27 27 28 34 43 45 29 23 22 33 51 46 79 65 75 85 97 74 80 75 77 88 90 86 83
96 99 99 80 94 97 79 69 54 49 50 54 47 39 39 40 45 40 37 32 32 28 39 40 53 69 45 32 26 32 40 40 51 58 71 92 96 88 88 86 86 91 92 88 81
99 98 99 95 90 73 81 75 68 51 46 40 41 34 41 46 43 45 43 36 31 44 45 41 50 66 76 68 59 56 43 43 49 81 86 93 96 97 97 97 96 89 95 89 87
99 99 88 96 99 79 64 73 67 57 42 42 46 42 48 61 58 53 45 39 34 44 41 53 65 46 40 43 47 46 47 57 56 57 73 94 89 88 97 86 94 98 92 84 82
100 96 76 78 97 85 72 75 65 57 39 42 46 41 45 57 56 46 50 46 43 46 49 48 66 47 47 35 63 58 44 53 55 57 74 86 80 66 64 61 62 62 75 77 77
92 72 68 74 86 95 80 68 67 46 37 32 36 42 43 37 27 35 38 37 37 53 58 61 68 55 58 55 70 76 73 69 72 72 72 82 85 66 58 57 64 63 60 64 68

GFSSW_925_rhum_144.txt.gz
RH
76 70 68 62 61 50 47 20 9 7 8 7 5 3 4 5 4 5 27 23 14 8 8 12 9 9 11 10 10 10 19 22 16 11 9 9 9 9 7 7 7 8 7 7 6
80 81 81 70 63 58 56 40 12 7 6 7 6 4 5 6 13 38 11 20 10 7 12 19 17 12 12 9 9 11 18 14 12 8 9 9 9 9 8 9 8 10 9 8 8
85 85 89 82 74 64 59 49 31 10 6 6 7 6 7 6 43 27 19 12 5 14 16 19 20 12 11 10 9 10 13 11 9 9 8 8 8 8 8 9 8 9 9 9 37
93 94 92 90 85 76 64 56 40 21 9 6 5 9 11 27 16 20 13 5 6 14 15 17 13 11 13 13 11 10 9 9 10 11 9 9 8 9 8 8 8 9 20 38 41
100 97 94 95 91 89 78 64 57 29 14 9 6 10 21 44 36 17 13 8 14 15 15 14 16 17 18 17 16 10 11 14 14 14 12 10 10 9 10 10 16 35 36 40 42
99 99 98 98 95 94 92 79 65 43 20 10 11 14 48 35 15 12 13 12 14 14 14 15 17 16 17 18 19 17 18 19 17 16 13 12 11 8 9 30 32 34 38 41 42
100 99 100 100 95 97 96 95 76 53 16 10 17 32 57 27 15 13 13 15 15 14 15 15 16 18 21 21 19 18 16 16 14 14 12 12 10 9 27 34 40 41 41 43 45
100 100 100 100 100 99 99 96 79 59 14 12 25 39 38 11 17 16 16 16 15 14 14 15 16 18 21 20 24 21 17 20 16 15 12 10 13 36 37 42 48 47 48 47 47
75 94 99 100 100 100 100 99 93 82 24 33 38 45 43 22 18 16 16 16 16 15 15 16 17 21 23 29 32 26 28 22 16 10 11 11 20 44 43 45 52 54 54 52 53
67 64 83 94 99 100 100 99 93 82 50 62 62 49 39 31 17 16 14 15 15 15 19 22 28 33 36 32 32 26 22 17 14 11 12 14 55 52 48 52 56 58 57 59 59
70 61 68 100 99 99 100 95 70 80 59 52 45 32 20 22 15 14 15 15 16 18 27 26 42 47 35 32 26 19 18 18 17 14 17 23 57 57 53 55 62 63 64 64 62
70 64 72 94 100 100 100 81 58 62 85 54 56 56 39 29 25 16 15 20 23 28 26 31 44 32 30 26 20 19 22 24 21 17 17 30 60 55 53 59 63 67 69 68 66
77 71 91 100 92 100 83 76 53 49 70 60 49 46 38 30 35 20 17 21 25 30 30 38 30 25 28 28 26 22 24 23 24 22 20 30 58 60 55 56 59 65 66 67 70
87 80 96 95 93 91 72 70 46 48 97 70 63 51 34 23 28 15 14 19 23 27 28 36 25 25 28 27 24 26 19 24 24 31 33 27 52 61 64 68 68 72 75 77 74
88 89 94 92 82 82 70 65 49 63 100 42 50 33 28 29 24 19 13 18 24 25 30 36 27 29 31 28 20 30 26 29 30 35 39 35 48 66 60 75 79 79 78 82 79
84 88 92 100 83 72 71 55 59 97 95 48 36 34 34 28 22 17 19 17 19 22 24 30 22 26 28 24 24 22 26 33 37 48 78 45 44 75 85 83 80 80 84 79 82
83 85 98 100 86 70 66 57 96 97 40 43 37 31 32 34 28 22 23 26 33 43 43 28 27 22 19 26 26 26 45 75 73 83 72 48 61 84 81 79 82 85 81 73 75
83 80 99 86 88 67 60 92 99 58 52 40 34 33 37 30 30 27 28 28 30 31 36 37 50 30 24 35 34 38 47 71 63 77 72 50 86 85 73 72 71 64 68 71 72
84 91 99 97 86 72 79 96 79 61 46 41 35 39 38 30 37 33 38 30 27 29 42 43 40 24 22 28 28 40 57 44 57 57 81 80 79 68 66 67 63 68 75 78 73
95 98 90 99 90 80 95 73 74 46 39 42 55 39 49 37 37 53 43 32 28 27 26 32 46 28 25 20 20 36 36 54 71 82 80 85 84 96 85 78 73 87 90 90 77
98 98 81 88 99 96 96 78 53 39 41 56 56 62 45 42 34 55 40 34 27 29 26 28 40 40 27 30 28 33 47 52 62 72 79 93 90 88 84 82 84 88 93 91 85
88 99 98 98 98 94 94 66 52 53 42 48 59 64 56 50 40 37 43 36 28 28 32 34 48 48 31 26 25 32 50 55 78 67 84 89 87 74 82 75 79 83 92 94 88
98 96 100 88 95 95 74 75 58 56 51 50 60 62 64 62 65 38 43 35 30 29 44 42 63 67 48 34 31 42 41 51 62 67 70 87 87 87 87 86 91 93 93 92 89
98 99 100 95 78 70 83 86 82 57 55 51 51 58 58 72 60 66 50 37 42 49 52 38 57 66 61 57 52 59 47 49 57 83 86 90 98 99 91 99 96 88 93 94 90
99 100 95 97 97 74 69 71 78 76 55 51 54 61 62 64 55 54 47 45 47 43 49 59 70 62 50 51 55 56 53 55 56 64 75 82 88 85 91 90 92 94 97 90 88
100 100 99 100 96 98 81 73 74 65 58 67 61 54 53 60 52 65 54 48 52 48 59 53 72 62 48 49 55 51 58 57 61 66 86 87 89 70 72 73 74 74 84 86 87
94 96 89 98 100 100 95 70 68 62 57 45 49 50 57 55 51 41 43 47 52 60 68 65 72 62 61 59 65 76 72 65 71 72 78 92 85 74 67 62 68 70 69 78 79

GFSSW_925_rhum_147.txt.gz
RH
76 78 74 72 67 60 50 36 18 8 5 4 3 2 3 3 2 7 16 23 16 8 10 12 10 12 11 11 11 14 20 24 18 12 9 9 8 8 8 7 8 8 10 33 37
83 80 82 76 73 67 62 54 37 13 6 5 4 3 5 4 10 33 12 20 9 11 12 20 21 19 12 9 10 13 19 18 14 9 9 9 8 8 7 8 8 18 40 41 42
88 86 85 87 80 76 68 65 57 22 9 6 6 4 5 14 30 24 18 11 5 11 14 18 21 15 12 11 10 11 13 12 10 11 8 8 8 8 8 9 22 37 47 43 45
96 94 94 93 86 86 82 71 64 50 16 7 7 5 5 30 10 19 10 5 10 13 14 14 16 14 14 15 14 11 10 12 10 12 11 9 8 9 23 48 42 44 44 45 47
94 99 98 95 91 93 95 90 76 60 24 8 7 6 14 22 20 16 15 9 14 14 15 16 18 20 20 19 18 12 15 18 16 15 13 10 11 21 45 40 40 42 45 49 50
95 100 100 98 97 96 99 98 92 72 36 10 8 7 29 19 16 13 12 12 15 14 15 16 18 17 19 21 21 20 19 19 16 17 14 13 11 26 40 40 42 44 49 50 51
100 100 100 100 100 100 100 100 93 80 54 14 11 17 40 17 14 14 15 14 15 15 15 16 17 18 21 22 21 20 19 17 14 14 13 12 44 52 42 42 50 51 50 52 54
93 98 97 100 100 100 100 98 95 87 59 29 22 28 24 16 15 18 15 16 15 15 15 16 16 19 21 21 26 26 19 22 16 15 12 11 55 52 46 50 56 54 55 55 55
71 88 94 87 98 100 100 99 99 91 84 42 36 39 40 30 23 17 15 17 16 16 15 16 18 21 24 31 31 27 30 23 16 12 11 15 63 52 51 51 57 59 61 58 58
70 63 67 86 97 100 99 100 93 84 57 62 62 48 44 34 19 17 16 16 15 16 19 22 35 38 40 36 28 30 27 18 15 12 20 62 70 59 56 58 62 64 63 64 64
76 67 62 70 98 100 100 97 76 81 56 61 53 41 26 27 18 14 16 16 16 19 26 27 42 48 40 35 26 24 20 19 17 15 26 59 71 64 59 64 69 68 68 69 68
79 68 65 80 95 87 99 88 60 64 90 62 53 48 42 41 36 20 16 20 22 28 26 30 45 32 34 32 32 28 23 24 22 18 30 63 71 62 62 69 70 72 74 74 72
82 70 88 98 89 92 95 81 65 50 80 67 60 60 55 51 49 37 19 22 26 29 32 36 25 28 33 35 35 28 26 25 22 22 32 63 76 69 62 63 63 68 72 74 78
86 82 94 86 84 82 78 75 56 50 96 70 65 56 46 38 46 29 17 20 25 30 31 36 25 25 30 34 31 34 22 22 28 31 38 32 50 74 68 72 74 78 84 85 82
84 91 87 78 82 78 71 71 48 67 66 36 58 41 36 42 26 35 16 19 26 26 32 38 33 38 38 31 26 31 28 29 30 36 38 37 46 76 71 76 84 86 86 85 86
90 84 89 98 74 73 70 60 62 86 89 51 42 42 49 41 26 20 19 17 20 22 25 29 23 25 29 26 24 28 30 44 46 51 79 43 41 76 84 81 83 84 83 71 70
84 83 87 92 76 67 60 63 90 97 43 40 42 37 38 42 40 23 26 27 28 36 35 27 27 23 23 28 27 32 42 66 77 82 64 50 50 75 89 82 84 83 78 77 70
85 93 93 77 70 66 60 85 95 61 62 41 39 35 42 35 36 35 29 33 28 32 42 42 51 30 26 35 34 39 44 62 59 84 75 50 66 82 78 76 75 71 78 79 80
84 80 92 89 83 70 80 94 76 65 46 44 32 43 43 33 38 36 40 33 28 32 42 46 44 25 26 29 26 41 51 42 59 62 76 72 79 74 78 72 72 79 83 91 84
93 85 92 75 80 75 91 76 70 50 41 44 49 43 50 42 42 52 44 35 28 26 28 33 46 31 26 25 24 44 42 60 69 76 83 86 88 91 86 80 77 93 92 91 85
97 95 73 77 88 97 94 81 57 44 42 47 59 57 55 43 41 55 42 36 30 32 28 26 45 41 25 34 34 33 43 56 62 71 77 85 88 85 85 83 84 87 93 94 92
94 94 86 81 99 92 94 68 52 51 43 49 59 59 68 62 54 45 47 37 30 32 35 36 46 45 37 27 24 27 44 55 74 71 79 85 83 78 85 83 84 81 90 94 93
96 92 100 91 92 86 72 68 62 56 51 51 50 55 46 64 84 60 42 34 35 34 45 48 70 71 58 34 34 43 47 54 64 63 75 81 78 86 85 89 90 93 93 95 92
98 99 99 94 81 70 72 72 73 58 58 51 55 52 67 79 68 66 51 39 43 46 49 49 67 60 71 56 54 57 55 55 57 74 80 81 90 99 97 99 98 91 92 94 91
99 98 86 98 97 93 66 67 71 75 58 57 60 55 58 70 79 79 63 51 48 58 53 52 72 72 54 49 58 61 44 55 55 61 63 74 91 89 90 96 90 92 97 91 89
99 99 100 100 96 97 90 78 70 65 60 71 71 61 65 77 65 72 53 58 56 51 58 61 82 74 66 48 57 63 51 52 60 70 88 88 86 78 84 83 89 88 90 92 92
94 94 97 91 98 99 95 93 78 64 67 55 61 63 63 58 58 51 53 58 51 66 77 78 88 94 90 54 63 74 74 64 69 71 81 92 79 88 79 72 78 81 77 81 81

GFSSW_925_rhum_150.txt.gz
RH
77 77 80 78 72 69 67 59 43 22 11 6 6 6 5 3 3 12 13 23 18 8 9 12 13 12 10 11 11 15 22 26 21 19 10 9 8 8 8 11 34 44 50 46 45
85 83 79 84 82 77 73 66 60 41 18 9 8 9 6 5 13 24 12 18 7 12 14 17 19 17 12 10 11 14 19 18 16 11 9 8 9 8 8 12 26 46 45 47 48
90 90 88 89 90 88 84 77 69 62 36 15 11 11 6 11 22 21 17 9 5 11 15 17 18 13 12 12 12 12 14 12 10 11 9 9 9 17 11 39 56 54 52 50 52
93 95 93 94 95 92 90 88 86 79 64 24 16 13 10 26 11 19 10 6 14 14 14 14 16 17 15 15 16 12 11 12 11 14 11 9 13 48 55 56 49 51 51 52 54
99 98 100 100 98 96 94 92 90 84 75 43 20 12 14 17 15 17 16 11 14 14 16 16 19 19 20 20 19 13 16 18 16 18 14 25 38 53 55 49 45 47 51 55 56
100 100 99 100 100 100 94 93 89 88 80 56 28 16 17 38 18 13 13 14 15 14 16 17 19 18 21 20 20 21 21 21 18 16 16 40 41 45 51 45 47 51 57 57 58
100 100 99 99 100 100 99 98 95 91 84 59 28 20 28 30 17 14 13 15 16 15 16 17 17 17 20 17 20 21 19 18 15 16 18 38 55 63 49 47 55 57 56 58 59
81 91 92 90 96 99 100 99 96 94 85 79 37 27 31 25 15 14 14 15 16 16 16 17 17 20 20 21 26 25 22 19 15 16 14 14 49 56 52 54 61 60 59 59 60
69 79 93 98 100 99 100 99 94 89 86 74 47 42 52 37 28 18 17 16 16 16 16 18 19 24 26 29 23 30 24 24 20 13 16 28 64 59 56 54 63 65 67 63 64
72 67 65 77 92 99 99 98 94 88 64 65 60 53 44 38 24 18 18 17 16 17 18 24 39 39 42 26 17 26 32 24 19 14 50 65 73 63 63 64 67 70 68 70 70
78 74 66 62 86 93 97 82 81 80 60 68 59 47 32 29 24 15 17 17 17 20 25 30 37 36 35 33 26 26 23 22 18 16 52 66 73 67 66 67 72 70 72 72 73
80 70 65 65 79 88 98 90 66 67 89 67 60 51 43 40 40 25 17 19 22 28 26 29 40 30 32 36 34 33 31 29 23 20 48 69 72 65 64 72 74 77 81 80 79
83 72 90 80 95 90 93 84 64 53 81 72 69 66 59 49 56 40 19 22 24 30 31 32 20 30 34 37 39 37 30 26 25 26 58 64 72 75 67 69 70 75 80 81 86
85 78 94 87 82 84 81 78 59 48 92 62 65 61 54 53 62 40 18 21 25 28 29 34 27 25 33 36 37 44 28 24 24 30 39 40 50 78 77 78 78 85 91 90 88
80 82 89 75 74 80 72 76 54 60 37 35 59 43 43 56 34 45 22 20 30 28 33 41 30 34 35 31 32 38 27 28 30 34 40 41 48 62 78 86 84 88 84 81 78
81 82 85 81 78 76 72 70 61 72 46 44 50 55 53 44 40 22 26 18 21 24 26 33 24 26 32 28 28 28 38 49 53 50 70 42 37 63 91 78 86 84 80 80 79
94 79 83 81 72 73 61 65 84 71 35 34 46 41 47 49 48 25 31 28 33 37 40 29 28 24 24 28 28 33 36 59 69 73 56 51 43 43 86 81 81 83 84 83 81
82 83 78 73 72 70 60 84 85 46 56 41 42 38 47 37 39 42 31 36 31 30 42 44 51 31 28 30 38 41 38 52 64 80 72 50 63 69 79 77 77 80 85 85 84
83 100 92 66 75 70 86 99 61 58 45 40 26 30 42 36 43 37 44 39 33 32 41 47 46 29 26 29 27 43 48 37 59 64 80 64 77 81 82 85 80 82 82 90 88
81 79 77 63 77 73 95 75 69 52 44 36 30 36 47 45 41 56 44 37 35 30 30 38 52 32 28 26 26 35 40 53 71 81 84 86 85 77 95 86 85 92 92 93 83
80 94 61 72 89 96 88 81 60 46 39 41 55 54 55 48 44 53 45 37 34 30 29 28 44 40 28 34 37 41 50 55 58 71 75 84 81 84 84 81 86 89 90 94 95
85 96 67 79 98 91 84 70 56 51 46 49 54 59 62 59 63 51 52 39 33 32 37 36 47 50 37 27 30 30 46 60 67 74 81 79 82 82 83 82 83 84 89 95 95
96 97 99 86 96 84 68 65 64 65 56 54 55 60 54 61 69 70 55 40 39 40 42 44 75 62 55 39 36 43 44 55 63 68 83 83 79 84 84 87 84 88 95 97 92
97 99 100 98 79 74 70 70 69 59 66 60 61 54 59 63 56 66 63 42 43 44 69 52 70 76 73 61 61 55 56 60 64 74 74 79 81 99 96 96 97 88 92 94 92
99 96 85 98 97 91 71 72 75 75 60 65 68 68 71 72 68 84 71 54 45 59 58 60 77 71 61 50 60 76 65 58 72 59 58 57 74 84 90 94 96 93 92 90 90
100 99 99 97 80 92 84 77 76 64 64 64 69 59 58 72 63 63 69 70 69 50 62 71 87 78 68 57 57 78 67 57 52 60 77 82 76 77 87 90 90 92 93 91 92
97 94 96 98 99 98 87 82 76 68 67 54 60 70 82 68 53 63 65 62 63 66 73 76 86 91 86 64 94 96 85 75 62 69 74 80 70 88 91 82 85 88 80 82 82

GFSSW_925_rhum_153.txt.gz
RH
82 83 84 85 77 74 72 69 64 60 43 25 19 15 14 9 9 14 14 24 14 13 14 12 11 9 9 10 11 13 18 24 21 20 10 8 8 9 18 30 40 42 43 44 47
88 88 88 91 91 88 82 81 78 71 66 46 28 23 21 13 15 22 15 15 6 10 14 16 15 13 10 10 10 11 15 17 15 12 9 8 8 9 13 23 37 39 42 46 46
91 92 91 93 96 92 89 86 85 82 76 66 44 35 29 16 18 21 15 6 12 15 14 15 16 12 12 12 12 12 12 12 10 10 8 8 16 35 24 41 52 49 48 47 47
95 93 94 92 95 93 91 90 88 84 78 72 61 49 33 16 24 19 12 9 13 14 14 15 16 15 15 14 16 11 11 11 12 15 10 10 30 46 48 53 46 46 49 48 49
100 100 98 97 96 96 96 88 86 86 80 75 66 56 32 30 25 16 16 13 13 14 17 17 18 18 16 17 17 14 14 16 15 16 32 33 43 48 51 45 45 47 48 49 51
99 99 100 97 95 99 98 98 83 81 82 76 66 52 22 60 24 15 14 13 15 14 16 18 18 18 19 19 16 19 19 17 16 16 33 39 46 40 48 43 46 46 49 50 53
99 100 99 100 99 99 99 96 94 90 83 80 72 43 29 52 30 16 14 15 16 15 16 17 18 17 19 17 20 21 18 16 15 16 34 32 42 55 46 44 49 49 50 51 55
95 93 93 93 95 93 94 95 88 92 87 82 71 38 52 39 30 20 14 15 17 16 16 17 18 20 20 20 22 21 20 13 15 17 25 20 35 54 45 44 51 52 52 54 56
77 76 78 85 86 94 95 98 86 89 89 78 56 45 61 44 29 19 19 17 16 17 17 19 20 27 24 19 14 24 14 22 17 22 23 22 51 54 46 47 53 54 55 55 55
70 67 65 68 91 98 98 89 91 82 74 68 63 59 48 39 24 19 19 17 17 18 19 26 32 30 31 16 15 13 22 26 20 15 29 40 60 58 52 50 56 56 57 58 57
79 72 67 62 70 99 97 80 81 77 65 66 62 57 40 28 24 16 18 17 17 21 24 33 26 24 24 28 26 25 25 21 18 20 33 46 54 56 55 55 58 59 60 62 63
83 72 67 62 67 91 87 87 75 69 81 66 68 58 49 41 54 26 18 20 23 26 26 26 29 24 27 31 31 30 32 28 22 29 28 52 52 55 56 57 57 61 65 66 65
82 70 76 64 88 91 91 88 69 56 82 70 66 66 58 53 61 52 19 22 24 29 28 31 25 29 29 33 35 35 33 29 24 35 49 49 46 59 58 60 62 66 68 67 69
82 74 82 91 83 93 89 80 59 57 72 45 59 54 58 53 58 45 20 20 26 28 28 30 25 24 29 31 30 35 30 28 24 25 29 38 29 49 59 64 64 68 68 68 66
80 78 87 86 72 81 70 77 58 51 34 35 58 42 50 55 35 33 26 21 35 29 34 48 32 34 31 25 31 33 31 29 26 29 34 35 35 39 63 66 65 68 69 66 64
78 81 88 84 79 76 74 70 60 61 33 48 55 56 60 50 46 27 27 19 22 30 29 32 25 29 28 28 25 29 36 41 43 38 42 30 30 24 64 59 65 71 68 67 66
82 76 85 84 76 74 70 63 62 43 30 37 51 49 50 52 52 28 37 32 43 44 45 32 29 23 25 28 30 29 32 41 47 49 42 42 37 26 62 67 64 71 70 71 65
89 77 78 84 75 64 58 75 43 32 45 41 40 41 52 42 42 46 33 41 31 30 36 40 46 30 26 29 30 34 31 37 50 52 42 48 44 36 68 67 69 68 71 70 69
91 85 76 78 78 66 82 94 40 39 41 39 24 27 38 38 46 40 44 37 32 31 45 42 42 29 27 27 24 36 43 28 46 58 62 46 56 71 74 74 76 71 68 76 72
98 90 81 70 77 69 88 80 65 50 44 36 13 25 33 40 38 55 42 38 36 29 29 37 46 30 28 27 27 29 31 42 60 90 72 48 59 47 88 80 77 85 78 85 74
70 91 60 74 76 92 90 77 61 49 44 39 46 34 42 42 41 48 42 37 34 30 30 31 41 38 32 36 34 38 38 43 42 48 60 55 58 80 72 73 79 79 85 80 86
83 92 77 78 98 93 82 71 58 53 46 47 51 54 60 59 58 47 46 36 35 33 36 34 45 46 41 28 26 29 35 40 57 71 62 61 72 78 73 74 73 75 86 88 83
90 95 100 82 92 85 64 60 62 63 57 54 54 56 56 58 47 64 56 44 38 38 40 39 55 66 55 42 33 36 31 41 56 55 76 91 75 78 76 77 73 88 82 84 90
95 99 100 98 80 64 69 65 71 61 63 58 58 58 56 56 55 56 51 41 46 46 50 51 53 62 71 56 54 52 39 44 56 95 91 84 83 98 95 93 87 78 85 86 89
96 93 80 95 96 92 68 67 64 71 59 63 70 63 60 65 61 62 53 60 54 49 56 56 56 59 50 47 50 51 51 49 76 82 94 74 79 81 90 89 93 90 89 84 83
100 99 93 86 68 78 75 70 76 65 63 69 69 57 63 72 66 58 58 60 58 53 60 65 63 64 66 52 63 90 58 53 61 78 93 98 69 69 73 74 84 80 86 83 85
93 94 90 84 91 82 80 75 71 66 64 55 56 62 70 75 59 57 54 54 51 59 65 71 74 93 81 65 97 96 83 74 63 56 67 75 61 84 88 79 74 74 69 72 75